This demonstration page uses our WeatherBlox Daily Observations layout. Learn more.

Left ArrowRight Arrow

Hourly Observations for March 10, 2017

Temp ( °F °C ) Dew Point ( °F °C ) Humidity (%) Winds ( mph kmh ) Pressure ( in mb ) Visibility ( mi km ) Precip ( " mm )
12:53 am 00:53 Cloudy 40 4.4 36 2.2 86 86 NNE 6 9 29.99 1016 10 16 0.04 1.02
1:53 am 01:53 Cloudy 39 3.9 36 2.2 89 89 NNE 7 11 29.99 1016 10 16 N/A
2:53 am 02:53 Cloudy 39 3.9 36 2.2 89 89 NNW 7 11 30.04 1017 10 16 N/A
3:01 am 03:01 Cloudy 39 3.9 36 2.2 89 89 NNW 10 17 30.09 1019 10 16 N/A
3:53 am 03:53 Cloudy 39 3.9 35 1.7 86 86 NNW 16 26 30.07 1018 10 16 N/A
4:29 am 04:29 Cloudy 38 3.3 33 0.6 83 83 N 13 20 30.09 1019 10 16 N/A
4:53 am 04:53 Cloudy 37 2.8 31 -0.6 79 79 NNW 12 19 30.11 1020 10 16 N/A
5:53 am 05:53 Mostly Clear 35 1.7 25 -3.9 67 67 N 10 17 30.15 1021 10 16 N/A
6:53 am 06:53 Cloudy 34 1.1 23 -5 64 64 NNW 9 15 30.19 1023 10 16 N/A
7:53 am 07:53 Sunny 34 1.1 17 -8.3 50 50 NNW 9 15 30.23 1024 10 16 N/A
8:53 am 08:53 Sunny 36 2.2 16 -8.9 44 44 NNW 13 20 30.26 1025 10 16 N/A
9:53 am 09:53 Sunny 38 3.3 19 -7.2 46 46 N 15 24 30.28 1026 10 16 N/A
10:53 am 10:53 Mostly Cloudy 39 3.9 22 -5.6 50 50 NW 15 24 30.30 1026 10 16 N/A
11:53 am 11:53 Mostly Cloudy 40 4.4 22 -5.6 49 49 NW 15 24 30.31 1026 10 16 N/A
12:53 pm 12:53 Mostly Cloudy 40 4.4 22 -5.6 49 49 NW 17 28 30.31 1026 10 16 N/A
1:53 pm 13:53 Mostly Cloudy 39 3.9 21 -6.1 48 48 NNW 12 19 30.29 1026 10 16 N/A
2:53 pm 14:53 Mostly Cloudy 41 5 20 -6.7 43 43 NW 22 35 30.30 1026 10 16 N/A
3:53 pm 15:53 Partly Cloudy 41 5 17 -8.3 38 38 WNW 16 26 30.31 1026 10 16 N/A
4:53 pm 16:53 Mostly Sunny 40 4.4 17 -8.3 40 40 NW 23 37 30.33 1027 10 16 N/A
5:53 pm 17:53 Sunny 37 2.8 14 -10 39 39 NW 16 26 30.35 1028 10 16 N/A
6:53 pm 18:53 Clear 35 1.7 12 -11.1 38 38 NNW 13 20 30.36 1028 10 16 N/A
7:53 pm 19:53 Clear 32 undefined 11 -11.7 41 41 NNW 10 17 30.37 1028 10 16 N/A
8:53 pm 20:53 Clear 30 -1.1 9 -12.8 41 41 NNW 10 17 30.38 1029 10 16 N/A
9:53 pm 21:53 Clear 29 -1.7 12 -11.1 49 49 NNW 10 17 30.37 1029 10 16 N/A
10:53 pm 22:53 Clear 27 -2.8 13 -10.6 55 55 N 8 13 30.38 1029 10 16 N/A
11:53 pm 23:53 Clear 26 -3.3 11 -11.7 53 53 NNW 9 15 30.40 1029 10 16 N/A

Powered by AerisWeather